Location: Hohenfelde
(53.8441°N, 9.6220°E)
Time: 12:10:46
(UTC+00:00)

Cosmos 921 Rocket - Pass Details

Date: 14 July 2020
Orbit: 572 x 631 km, 75.8° (Epoch: 12 August)

Event Time Altitude Azimuth Distance (km) Brightness Sun altitude
Rises 02:04:33 0° 332° (NNW) 2,909 6.9 -7.3°
Reaches altitude 10° 02:06:54 10° 325° (NW) 1,989 5.9 -7.1°
Maximum altitude 02:11:04 41° 256° (WSW) 894 3.5 -6.7°
Drops below altitude 10° 02:15:07 10° 187° (S) 1,939 5.1 -6.3°
Enters shadow 02:17:10 - 180° (S) 2,737 5.9 -6.2°
